Submittal Forms
Current Contests
Recent Contests

Club Activity Tracker - Interest Group RTTY (from club selection on form)

Recent postings for the selected club or group are listed below. Other than the call used, all calls listed are only those associated with the club or group. Click on a call to see the details of the posting.
Status Key: new=new posting, update=update prior posting, move=change club/group, delete=delete prior posting.

Sort by   for past

TimestampCallContestClassPowerScoreStatus
2020-05-24 17:38:55DL7VOGEU PSKSOAB-12HP36,735new5600
2020-05-24 12:08:36MM3AWDBalticSO MixedQRP1,209new5602
2020-05-24 12:03:53MM3AWDEU PSKSOAB-12QRP192,182new5600
2020-05-20 20:03:34MM3AWDCWopsTSingle OpQRP4,015new5593
2020-05-17 12:17:06MM3AWDUNDXSO CWQRP20,152new5582
2020-05-17 12:13:11MM3AWDKing of Spain CWSOABQRP359,488new5583
2020-05-13 20:31:55MM3AWDCWopsTSingle OpQRP2,976new5575
2020-05-13 14:01:05MM3AWDCWopsTSingle OpQRP2,256new5574
2020-05-12 11:57:23DL7VOGVolta RTTYSOABHP20,378,155new5563
2020-05-11 09:19:47DL1ZBOVolta RTTYSOABLP4,014,720new5563
 
2020-05-11 06:39:42DQ9Y(DF2SD)Volta RTTYSOABHP802,670,352new5563
2020-05-11 00:54:05VU2IBIVolta RTTYSOABHP5,516,574new5563
2020-05-10 12:57:28IW1CBGVolta RTTYSOABLP22,321,068new5563
2020-05-10 12:41:01VU2DEDVolta RTTYSOABHP15,706,020new5563
2020-05-10 12:39:15DJ3IWVolta RTTYSOSB/20HP38,579,870new5563
2020-05-10 12:27:23EA8OMVolta RTTYSOABLP18,108,552new5563
2020-05-10 12:12:57MM3AWDVolta RTTYSOABQRP17,787,600new5563
2020-05-10 12:06:12MM3AWDCQ-MSOABMixedQRP184,464new5564
2020-05-10 11:11:28F4DSKVolta RTTYSOABLP94,922,373new5563
2020-05-06 20:01:41MM3AWDCWopsTSingle OpQRP3,410new5558
 
2020-05-06 14:03:46MM3AWDCWopsTSingle OpQRP2,703new5557
2020-05-06 03:06:26VU2DEDARISO RTTYHP8,547new5543
2020-05-03 17:23:15MM3AWDARISO MixedQRP170,408new5543
2020-05-03 12:41:39F4DSKARISO RTTYLP190,619new5543
2020-05-03 12:31:48DQ9Y(DF2SD)ARISO RTTYHP857,256new5543
2020-05-03 12:20:15EA8OMARISO MixedLP148,951new5543
2020-05-03 12:19:57II1R(IW1CBG)ARISO RTTYLP23,856new5543
2020-05-01 16:02:51MM3AWDHopeSingle OpQRP3,444new5541
2020-04-30 14:38:23MM3AWDHopeSingle OpQRP5,115new5538
2020-04-30 09:26:38MM3AWDCWopsTSingle OpQRP5,248new5536
 
2020-04-29 14:07:47MM3AWDHopeSingle OpQRP1,702new5534
2020-04-29 14:03:02MM3AWDCWopsTSingle OpQRP4,380new5535
2020-04-28 11:32:04MM3AWDHopeSingle OpQRP3,410new